Location: Malvern Link
(52.1333°N, 2.3000°W)
Time: 15:23:16
(UTC+00:00)

SO-50 - Pass Details

Date: 11 July 2022
Orbit: 585 x 698 km, 64.6° (Epoch: 11 August)

Event Time Altitude Azimuth Distance (km) Brightness Sun altitude
Rises 01:02:42 0° 278° (W) 3,024 ? -15.0°
Reaches altitude 10° 01:05:29 10° 294° (WNW) 2,128 ? -14.9°
Maximum altitude 01:09:15 22° 345° (NNW) 1,500 ? -14.8°
Drops below altitude 10° 01:13:05 10° 36° (NE) 2,164 ? -14.7°
Sets 01:15:57 0° 52° (NE) 3,088 ? -14.5°
